• In Uzbekistan
  • List of Countries
  • For 7 days
  • Water Temperature
  • Satellite Maps
  • Weather Map
  • Weather Widgets
  • user-avatar
    Login

    Hourly Weather Mutare

    Today, 19 January, Friday

    Time Temperature Precipitation Wind Pressure Humidity
    00:00 +16°C° 0.1 mm 1 mps 652 mmHg 91%
    01:00 +16°C° 0.1 mm 1 mps 652 mmHg 92%
    02:00 +15°C° 0 mm 1 mps 652 mmHg 94%
    03:00 +15°C° 0 mm 1 mps 652 mmHg 95%
    04:00 +14°C° 0 mm 0 mps 652 mmHg 95%
    05:00 +13°C° 0 mm 0 mps 651 mmHg 95%
    06:00 +15°C° 0 mm 0 mps 652 mmHg 86%
    07:00 +18°C° 0 mm 0 mps 653 mmHg 77%
    08:00 +22°C° 0 mm 1 mps 654 mmHg 65%
    09:00 +24°C° 0 mm 1 mps 654 mmHg 55%
    10:00 +26°C° 0 mm 1 mps 654 mmHg 45%
    11:00 +28°C° 0 mm 1 mps 655 mmHg 35%
    12:00 +29°C° 0 mm 2 mps 654 mmHg 32%
    13:00 +30°C° 0 mm 2 mps 654 mmHg 29%
    14:00 +30°C° 0 mm 2 mps 653 mmHg 27%
    15:00 +29°C° 0 mm 2 mps 653 mmHg 30%
    16:00 +28°C° 0 mm 3 mps 652 mmHg 33%
    17:00 +27°C° 0 mm 3 mps 652 mmHg 36%
    18:00 +25°C° 0 mm 2 mps 652 mmHg 49%
    19:00 +21°C° 0 mm 2 mps 651 mmHg 62%
    20:00 +19°C° 0 mm 1 mps 651 mmHg 75%
    21:00 +18°C° 0 mm 1 mps 651 mmHg 81%
    22:00 +18°C° 0 mm 1 mps 651 mmHg 86%
    23:00 +16°C° 0 mm 1 mps 651 mmHg 92%

    Tomorrow, 20 January, Saturday

    Time Temperature Precipitation Wind Pressure Humidity
    00:00 +16°C° 0 mm 1 mps 651 mmHg 92%
    01:00 +16°C° 0 mm 1 mps 651 mmHg 93%
    02:00 +15°C° 0 mm 1 mps 651 mmHg 94%
    03:00 +15°C° 0 mm 1 mps 651 mmHg 94%
    04:00 +15°C° 0 mm 1 mps 651 mmHg 94%
    05:00 +15°C° 0 mm 1 mps 651 mmHg 93%
    06:00 +17°C° 0 mm 0 mps 652 mmHg 81%
    07:00 +20°C° 0 mm 0 mps 653 mmHg 68%
    08:00 +23°C° 0 mm 0 mps 654 mmHg 55%
    09:00 +27°C° 0 mm 1 mps 654 mmHg 48%
    10:00 +29°C° 0 mm 1 mps 655 mmHg 40%
    11:00 +31°C° 0 mm 2 mps 655 mmHg 32%
    12:00 +31°C° 0 mm 2 mps 654 mmHg 32%
    13:00 +31°C° 0 mm 2 mps 654 mmHg 32%
    14:00 +31°C° 0 mm 2 mps 653 mmHg 33%
    15:00 +30°C° 0 mm 2 mps 653 mmHg 35%
    16:00 +29°C° 0 mm 2 mps 652 mmHg 38%
    17:00 +28°C° 0 mm 2 mps 652 mmHg 40%
    18:00 +26°C° 0 mm 2 mps 651 mmHg 53%
    19:00 +23°C° 0 mm 1 mps 651 mmHg 65%
    20:00 +20°C° 0 mm 1 mps 651 mmHg 77%
    21:00 +20°C° 0 mm 1 mps 651 mmHg 82%
    22:00 +19°C° 0 mm 1 mps 652 mmHg 86%
    23:00 +19°C° 0 mm 1 mps 652 mmHg 90%

    Day after tomorrow, 21 January, Sunday

    Time Temperature Precipitation Wind Pressure Humidity
    00:00 +18°C° 0 mm 1 mps 652 mmHg 91%
    01:00 +18°C° 0 mm 1 mps 651 mmHg 93%
    02:00 +18°C° 0 mm 1 mps 651 mmHg 94%
    03:00 +16°C° 0 mm 1 mps 651 mmHg 95%
    04:00 +16°C° 0 mm 1 mps 651 mmHg 95%
    05:00 +15°C° 0 mm 0 mps 651 mmHg 95%
    06:00 +18°C° 0 mm 0 mps 652 mmHg 84%
    07:00 +20°C° 0 mm 0 mps 653 mmHg 73%
    08:00 +23°C° 0 mm 0 mps 654 mmHg 61%
    09:00 +27°C° 0 mm 1 mps 655 mmHg 52%
    10:00 +29°C° 0 mm 1 mps 655 mmHg 43%
    11:00 +31°C° 0 mm 2 mps 656 mmHg 34%
    12:00 +31°C° 0 mm 2 mps 655 mmHg 32%
    13:00 +31°C° 0 mm 3 mps 654 mmHg 31%
    14:00 +33°C° 0 mm 3 mps 654 mmHg 30%
    15:00 +30°C° 0 mm 3 mps 653 mmHg 34%
    16:00 +29°C° 0 mm 3 mps 652 mmHg 38%
    17:00 +28°C° 0 mm 4 mps 652 mmHg 42%
    18:00 +25°C° 0 mm 3 mps 652 mmHg 53%
    19:00 +23°C° 0 mm 2 mps 652 mmHg 65%
    20:00 +20°C° 0 mm 1 mps 652 mmHg 76%
    21:00 +19°C° 0 mm 1 mps 652 mmHg 81%
    22:00 +19°C° 0 mm 1 mps 652 mmHg 86%
    23:00 +18°C° 0 mm 1 mps 652 mmHg 91%

    22 January, Monday

    Time Temperature Precipitation Wind Pressure Humidity
    00:00 +16°C° 0 mm 1 mps 652 mmHg 92%
    01:00 +16°C° 0 mm 1 mps 651 mmHg 94%
    02:00 +16°C° 0 mm 1 mps 651 mmHg 95%
    03:00 +15°C° 0 mm 1 mps 651 mmHg 94%
    04:00 +15°C° 0 mm 1 mps 651 mmHg 94%
    05:00 +14°C° 0 mm 1 mps 651 mmHg 94%
    06:00 +18°C° 0 mm 1 mps 652 mmHg 81%
    07:00 +21°C° 0 mm 1 mps 653 mmHg 68%
    08:00 +22°C° 0 mm 0 mps 654 mmHg 56%
    09:00 +26°C° 0 mm 1 mps 655 mmHg 49%
    10:00 +28°C° 0 mm 1 mps 655 mmHg 42%
    11:00 +30°C° 0 mm 2 mps 655 mmHg 35%
    12:00 +30°C° 0 mm 2 mps 654 mmHg 35%
    13:00 +30°C° 0 mm 2 mps 653 mmHg 34%
    14:00 +31°C° 0 mm 3 mps 653 mmHg 33%
    15:00 +29°C° 0 mm 3 mps 652 mmHg 38%
    16:00 +28°C° 0 mm 3 mps 652 mmHg 42%
    17:00 +27°C° 0 mm 3 mps 651 mmHg 46%
    18:00 +25°C° 0 mm 2 mps 651 mmHg 56%
    19:00 +21°C° 0 mm 2 mps 651 mmHg 66%
    20:00 +20°C° 0 mm 1 mps 651 mmHg 75%
    21:00 +19°C° 0 mm 1 mps 651 mmHg 80%
    22:00 +18°C° 0 mm 1 mps 651 mmHg 84%
    23:00 +18°C° 0 mm 1 mps 651 mmHg 89%

    23 January, Tuesday

    Time Temperature Precipitation Wind Pressure Humidity
    00:00 +16°C° 0 mm 1 mps 651 mmHg 91%
    01:00 +16°C° 0 mm 1 mps 651 mmHg 92%
    02:00 +16°C° 0 mm 1 mps 650 mmHg 94%
    03:00 +15°C° 0 mm 1 mps 650 mmHg 94%
    04:00 +15°C° 0 mm 1 mps 650 mmHg 95%
    05:00 +14°C° 0 mm 0 mps 650 mmHg 95%
    06:00 +16°C° 0 mm 0 mps 651 mmHg 84%
    07:00 +19°C° 0 mm 0 mps 652 mmHg 72%
    08:00 +22°C° 0 mm 0 mps 653 mmHg 60%
    09:00 +26°C° 0 mm 1 mps 654 mmHg 51%
    10:00 +28°C° 0 mm 1 mps 654 mmHg 42%
    11:00 +31°C° 0 mm 1 mps 654 mmHg 34%
    12:00 +31°C° 0 mm 2 mps 653 mmHg 32%
    13:00 +32°C° 0 mm 2 mps 652 mmHg 30%
    14:00 +32°C° 0 mm 2 mps 652 mmHg 28%
    15:00 +31°C° 0 mm 2 mps 651 mmHg 31%
    16:00 +30°C° 0 mm 3 mps 651 mmHg 34%
    17:00 +29°C° 0 mm 3 mps 651 mmHg 36%
    18:00 +26°C° 0 mm 2 mps 650 mmHg 48%
    19:00 +23°C° 0 mm 2 mps 650 mmHg 59%
    20:00 +21°C° 0 mm 1 mps 650 mmHg 70%
    21:00 +20°C° 0 mm 1 mps 650 mmHg 74%
    22:00 +19°C° 0 mm 1 mps 651 mmHg 78%
    23:00 +18°C° 0 mm 1 mps 651 mmHg 82%

    24 January, Wednesday

    Time Temperature Precipitation Wind Pressure Humidity
    00:00 +16°C° 0 mm 1 mps 650 mmHg 84%
    01:00 +15°C° 0 mm 1 mps 650 mmHg 86%
    02:00 +15°C° 0 mm 1 mps 649 mmHg 88%
    03:00 +15°C° 0 mm 1 mps 650 mmHg 88%
    04:00 +15°C° 0 mm 1 mps 650 mmHg 88%
    05:00 +15°C° 0 mm 1 mps 650 mmHg 88%
    06:00 +19°C° 0 mm 1 mps 651 mmHg 75%
    07:00 +20°C° 0 mm 0 mps 652 mmHg 63%
    08:00 +24°C° 0 mm 0 mps 653 mmHg 51%
    09:00 +28°C° 0 mm 1 mps 653 mmHg 44%
    10:00 +31°C° 0 mm 1 mps 654 mmHg 36%
    11:00 +33°C° 0 mm 1 mps 654 mmHg 29%
    12:00 +33°C° 0 mm 1 mps 653 mmHg 27%
    13:00 +35°C° 0 mm 2 mps 653 mmHg 25%
    14:00 +35°C° 0 mm 2 mps 652 mmHg 23%
    15:00 +34°C° 0 mm 3 mps 651 mmHg 26%
    16:00 +31°C° 0 mm 3 mps 651 mmHg 29%
    17:00 +30°C° 0 mm 3 mps 651 mmHg 32%
    18:00 +27°C° 0 mm 3 mps 650 mmHg 41%
    19:00 +24°C° 0 mm 2 mps 650 mmHg 51%
    20:00 +21°C° 0 mm 1 mps 650 mmHg 60%
    21:00 +20°C° 0 mm 1 mps 650 mmHg 64%
    22:00 +19°C° 0 mm 1 mps 650 mmHg 69%
    23:00 +19°C° 0 mm 1 mps 650 mmHg 73%
    Show more